[Date Prev][Date Next][Thread Prev][Thread Next] - [Date Index][Thread Index][Author Index]

2 Line ISS Keps 3-9



ISS
1 25544U 98067A   03068.51119213  .00027052  00000-0  33949-3 0  7625
2 25544  51.6353 160.8702 0011665 295.8233 239.7150 15.59444908245456



----
Via the sarex mailing list at AMSAT.ORG courtesy of AMSAT-NA.
To unsubscribe, send "unsubscribe sarex" to Majordomo@amsat.org



AMSAT Top AMSAT Home